Theta_e
322 323 323 324 324 324 325 325 326 326 326 327 327 328 328 328 327 327 328 328 328 327 328 327 328 329 328 329 329 328 323 316 317 315 314 320 323 335 336 338 336 334 335 328 321 315 310 310 309 312 313 313 315 311 319 316 314 313 303 298 295 297 297 302 301 301 303 301 299 300 300 301 299 299 302 303 301 300 301 301 303 304 304 305 302 307 305 303
322 322 322 323 323 324 324 325 325 325 325 326 327 327 328 328 327 327 328 327 328 328 327 328 328 329 329 328 328 326 319 325 316 316 315 334 337 336 337 335 337 336 335 321 316 312 309 308 309 310 309 308 323 312 313 313 316 307 302 300 295 300 301 302 303 302 300 300 303 302 301 301 300 300 300 298 298 299 298 300 301 301 303 300 301 304 302 302
321 321 322 322 323 323 324 324 325 325 326 326 326 326 327 326 327 327 327 327 327 327 327 327 327 329 328 328 327 326 324 324 316 312 314 331 336 337 339 337 336 336 328 319 317 314 311 310 311 309 308 305 312 307 313 310 307 304 302 296 298 304 303 305 305 304 304 303 301 301 301 300 301 302 301 298 297 299 297 297 298 300 301 299 300 302 300 301
320 321 321 321 322 323 323 324 324 324 325 326 326 326 326 326 326 327 327 326 327 327 326 327 327 328 328 327 328 326 329 326 311 314 318 332 334 336 335 335 336 334 328 321 317 312 312 311 310 310 310 304 307 310 306 310 304 305 300 297 300 303 301 303 303 303 302 302 301 300 301 299 301 301 299 298 296 297 300 302 301 300 301 302 299 301 300 300
320 320 320 320 321 322 323 323 324 324 324 325 326 326 326 326 326 326 326 326 326 326 326 326 326 327 327 327 324 327 323 308 308 317 323 331 332 333 333 337 330 328 325 318 313 311 310 309 309 309 309 302 306 305 305 308 308 309 302 304 304 303 300 303 302 302 301 301 300 300 298 299 303 302 299 299 296 296 300 302 303 304 304 303 299 301 300 299
320 320 320 320 320 321 322 323 323 323 324 324 325 325 325 326 326 326 326 325 325 325 325 326 325 326 327 327 324 326 319 294 317 321 324 329 330 330 331 330 331 327 319 312 310 310 310 309 308 307 303 302 302 301 305 306 307 298 301 303 304 304 302 304 303 302 300 300 298 299 300 302 299 299 300 300 299 301 304 305 305 303 304 304 301 301 300 299
319 319 319 319 319 320 321 322 322 323 324 324 324 325 325 325 326 326 326 325 325 325 325 325 325 326 325 324 325 321 314 309 325 325 326 327 326 332 327 327 325 323 314 310 308 308 309 307 307 304 303 302 303 302 305 305 307 301 298 301 302 304 302 303 302 299 299 299 299 301 299 298 298 296 300 299 302 303 304 305 304 303 303 302 300 300 300 300
319 319 318 318 318 319 320 322 322 322 323 324 324 324 324 325 325 325 325 325 325 325 325 324 325 325 323 327 328 312 311 309 316 322 319 327 325 320 325 323 318 320 311 307 307 307 307 306 305 307 303 301 303 303 304 304 303 299 299 301 302 301 301 302 300 297 299 299 299 302 298 298 299 298 300 300 302 303 304 305 303 302 302 301 301 300 300 300
319 318 318 318 318 318 319 320 321 322 322 323 324 324 324 325 325 325 325 325 325 324 325 324 324 327 323 318 316 308 304 323 315 317 327 321 316 317 320 316 313 312 309 309 309 308 309 307 306 308 300 302 305 302 303 302 297 301 301 301 301 301 302 301 301 300 299 300 299 297 297 299 299 300 298 301 302 303 304 303 303 301 301 300 301 300 300 300
319 318 318 318 317 318 319 319 320 321 322 323 323 323 324 324 324 325 325 325 325 325 324 324 324 322 320 322 317 301 319 313 318 314 317 316 314 313 311 318 311 309 308 307 308 308 307 309 313 313 311 302 304 302 304 302 299 300 299 300 299 300 300 301 300 301 300 299 299 297 297 297 299 299 294 301 303 303 303 303 303 302 300 300 300 301 301 301
320 319 318 318 317 318 318 319 319 320 321 322 322 323 323 323 324 324 324 324 324 324 324 323 324 316 323 317 307 300 320 321 315 312 313 316 313 312 317 319 313 314 308 309 308 309 311 309 317 312 311 301 303 301 301 302 300 300 300 298 298 299 300 301 301 301 300 299 299 298 296 297 298 297 296 300 301 302 302 302 302 302 302 300 300 300 300 301
320 319 319 318 317 318 318 319 319 320 320 321 322 322 322 323 324 324 323 324 323 324 324 321 322 320 317 313 307 310 312 315 317 314 316 316 319 318 320 313 311 318 315 308 310 318 319 319 315 306 298 307 299 302 301 299 301 299 298 294 297 299 298 300 299 300 300 298 299 299 295 293 295 294 298 301 302 300 300 301 301 301 302 301 300 300 299 300
320 319 319 318 318 318 318 319 319 320 320 320 321 321 322 323 323 323 323 323 323 323 324 323 319 319 321 307 311 315 313 314 319 317 317 317 315 314 313 318 316 312 314 309 315 317 317 313 314 304 308 304 301 297 300 300 300 300 298 296 296 296 295 300 302 301 298 298 299 297 286 290 294 297 300 302 301 300 299 299 299 300 301 301 300 300 300 300
320 320 318 318 318 318 318 319 320 319 320 320 321 321 322 322 323 323 323 322 323 324 324 321 325 320 313 303 318 316 313 315 314 317 316 318 315 318 320 320 317 313 319 317 314 313 315 309 312 306 307 302 299 307 301 300 300 293 298 297 292 290 290 299 300 299 297 297 298 297 288 290 295 297 300 301 302 299 298 298 298 300 300 300 300 300 300 300
320 319 319 318 318 318 318 319 320 320 320 320 321 321 321 321 322 322 322 321 324 325 323 323 322 322 307 305 311 314 320 313 310 315 318 311 313 315 315 313 316 313 310 310 310 310 309 313 312 302 298 303 303 299 296 296 298 296 291 288 292 289 292 298 299 298 296 295 298 296 288 290 295 298 300 301 301 300 298 298 298 299 300 300 300 300 300 300
320 319 319 319 319 319 319 319 319 319 320 321 320 320 320 320 321 322 322 322 321 323 325 321 320 317 307 302 315 320 318 307 308 315 313 317 318 316 315 314 313 314 310 307 310 307 307 309 302 302 302 301 298 294 293 292 294 295 292 289 290 292 293 297 297 297 299 294 296 295 289 292 293 298 299 300 300 299 299 298 298 299 300 300 300 300 300 300
320 319 319 319 320 320 320 319 319 319 320 320 320 320 320 320 321 322 322 321 319 323 326 319 314 312 297 314 312 307 308 314 316 315 312 313 312 314 313 313 308 308 309 308 309 311 308 304 307 301 301 297 296 296 289 288 289 292 294 291 293 292 294 292 297 296 297 295 292 295 292 292 295 297 298 300 300 299 298 298 299 299 299 300 300 299 299 299
320 320 320 319 320 320 319 319 319 320 320 320 319 319 319 322 323 322 319 321 326 322 321 319 315 311 302 307 301 304 313 309 316 314 314 313 313 309 309 305 308 306 306 304 309 303 307 299 302 295 297 296 295 293 287 285 289 290 290 289 291 293 294 294 293 294 295 295 293 292 291 292 295 297 298 299 299 299 298 299 299 299 299 300 300 300 299 299
321 321 320 319 320 319 319 319 320 320 320 320 321 322 324 325 321 323 316 316 314 311 300 303 305 294 295 305 306 307 316 315 313 312 305 310 314 311 309 308 309 303 301 298 299 300 304 301 304 296 292 293 294 294 292 292 295 293 293 292 291 290 292 293 297 296 296 293 292 292 291 293 294 295 298 299 300 299 299 299 299 299 299 299 300 300 299 298
321 321 320 319 319 319 319 319 320 320 320 317 316 317 319 315 313 305 308 312 304 304 305 306 306 307 309 304 308 311 315 316 304 310 310 315 309 306 304 303 309 306 299 296 301 298 304 292 290 290 293 295 297 297 297 298 297 296 295 293 292 292 293 296 297 296 296 293 292 293 293 293 295 296 297 299 299 298 298 298 298 299 299 299 299 298 298 298
321 321 320 319 319 319 319 320 321 320 320 317 315 313 301 304 299 297 298 303 307 307 304 304 307 305 304 311 309 305 304 303 307 309 309 312 309 302 299 300 300 296 297 299 300 302 303 292 293 295 297 297 298 299 298 297 297 296 294 292 292 292 291 295 296 295 295 292 290 293 292 293 295 296 297 298 297 297 298 298 298 299 299 299 299 298 298 297
321 321 320 320 319 319 320 320 320 320 319 317 316 310 305 304 306 307 300 294 302 306 306 305 305 302 305 305 311 311 309 302 305 307 312 311 305 298 299 298 297 293 297 298 297 295 293 291 295 298 299 299 298 298 297 296 295 294 292 291 290 291 294 297 297 293 292 292 288 291 290 292 294 296 297 297 297 299 299 299 299 299 298 299 299 297 297 296
321 321 321 321 320 320 320 320 320 318 317 310 309 307 306 306 308 310 307 302 297 302 302 304 303 302 302 306 307 307 300 298 296 305 305 308 302 299 299 295 295 295 297 297 292 292 290 293 297 299 299 297 296 296 296 295 295 292 290 288 287 292 291 288 293 291 292 291 288 290 290 292 295 296 297 298 299 299 300 300 300 300 299 299 299 299 299 296
321 321 321 321 320 320 320 320 319 318 311 309 308 305 308 307 307 308 308 298 295 300 301 302 302 303 301 300 306 303 299 298 298 300 308 304 299 301 300 297 295 294 293 295 295 293 292 296 299 299 298 297 295 295 294 291 291 293 293 291 290 291 293 292 293 292 292 291 292 289 289 289 292 292 293 297 299 298 299 299 299 300 300 301 301 299 299 297
321 320 320 321 319 320 320 320 314 311 310 309 308 307 307 306 306 307 303 298 296 297 312 309 311 309 305 307 306 300 300 298 299 306 306 304 300 297 296 300 297 292 294 295 296 294 294 298 300 296 296 296 295 293 293 293 290 290 294 294 293 293 293 293 294 293 289 289 292 290 284 284 288 292 293 295 294 295 296 296 297 298 298 299 298 298 298 298
320 320 320 320 320 320 320 315 311 312 309 308 306 307 307 307 307 305 302 293 288 299 300 297 308 301 311 301 306 304 298 295 302 304 306 307 308 302 298 295 297 291 294 294 294 295 295 298 298 296 295 294 294 292 294 295 291 288 290 295 296 295 293 293 292 290 282 282 289 291 282 282 288 290 292 292 291 293 294 295 296 297 298 298 298 297 298 298
321 320 320 320 320 319 312 307 313 312 307 308 309 309 307 308 309 303 298 291 286 297 295 302 304 302 310 304 302 297 288 292 302 302 302 306 302 306 295 294 296 296 298 299 294 290 295 293 293 296 295 293 292 291 295 295 291 288 292 291 295 294 292 292 292 289 287 291 292 292 287 282 284 288 291 293 292 292 293 294 295 297 297 298 298 297 297 298
320 320 320 321 321 318 313 312 311 307 307 308 312 309 310 308 310 305 295 281 282 303 297 297 304 309 306 302 304 297 293 294 294 296 299 302 302 301 295 294 293 293 295 294 284 298 295 292 292 292 291 289 290 294 298 296 292 290 291 294 292 294 293 292 290 286 285 284 283 285 289 282 283 287 292 293 290 292 293 293 294 296 297 297 298 298 298 298
320 320 319 320 320 318 317 313 310 307 311 313 311 310 309 310 301 299 290 280 299 298 309 297 310 305 301 301 298 296 294 297 292 294 302 302 301 298 293 294 294 294 294 294 288 293 298 295 296 296 292 289 294 288 290 297 292 293 292 294 293 292 292 291 285 285 284 282 280 282 288 281 283 289 289 289 290 290 292 294 295 296 297 297 297 297 297 297
320 320 319 319 318 316 314 314 310 314 312 309 310 308 310 305 301 290 284 277 301 292 300 298 299 296 297 293 293 296 292 294 294 296 298 295 299 301 296 297 295 293 291 294 293 294 294 293 296 295 293 295 287 288 291 291 293 294 295 293 291 290 286 286 286 284 282 279 282 285 288 286 281 286 287 287 289 291 293 293 294 296 296 296 296 297 297 296
320 320 319 318 315 317 315 310 313 312 311 311 309 309 306 302 291 284 279 290 299 299 299 296 295 299 294 293 290 295 293 293 292 294 292 296 295 296 295 292 299 291 287 287 289 292 294 293 292 294 297 292 292 290 291 291 293 294 288 286 285 284 286 284 283 284 277 278 283 285 287 288 279 282 289 292 292 293 294 293 294 295 295 297 297 297 298 296
320 319 319 317 319 321 310 308 310 314 311 309 309 306 301 289 291 281 282 297 290 295 294 294 298 296 294 296 296 292 291 293 293 292 291 288 288 289 289 287 288 282 283 283 284 288 287 289 293 294 295 295 291 291 289 291 290 291 286 285 281 280 282 278 280 276 277 278 284 284 288 284 284 289 291 291 291 294 294 295 295 295 295 295 295 296 297 296
319 318 318 318 317 316 315 314 313 311 310 310 305 303 292 286 279 287 286 292 289 297 295 303 296 295 297 295 293 296 297 292 294 291 294 293 290 290 292 292 293 290 284 287 285 287 286 291 292 293 292 295 294 287 284 283 285 287 285 283 280 277 276 274 276 279 281 283 286 286 288 285 288 290 295 295 297 296 295 296 295 294 295 295 297 296 295 294
320 319 316 316 318 318 317 313 313 311 309 309 304 298 291 282 283 296 292 290 293 298 300 299 297 297 296 292 296 297 291 296 292 291 292 291 290 287 290 292 293 292 290 287 283 284 282 283 288 291 286 294 294 292 291 289 284 287 289 287 284 282 278 274 277 276 278 281 282 285 280 279 280 284 294 297 298 298 297 296 295 295 296 294 296 294 293 292
319 319 319 317 316 318 315 314 311 312 308 303 296 290 283 283 289 290 290 292 296 296 296 299 297 294 293 294 298 297 296 291 294 292 290 290 287 287 288 290 293 293 292 285 286 286 285 286 290 296 292 294 292 295 295 292 285 286 289 290 283 282 285 281 283 282 280 280 281 281 280 283 288 292 292 293 294 295 295 296 295 295 296 294 294 295 294 292
317 316 318 313 313 317 314 312 311 310 304 298 290 284 284 288 287 292 292 300 298 296 297 295 297 292 289 290 295 296 300 293 294 292 290 290 292 290 292 293 292 294 291 286 288 282 285 284 293 295 291 292 292 294 293 296 283 285 288 283 286 290 288 284 284 284 281 280 279 284 285 288 292 294 295 295 295 294 293 294 294 295 296 294 294 293 293 293
314 316 310 313 313 317 314 311 311 308 303 295 288 283 288 290 297 298 301 298 295 295 296 289 290 290 289 288 290 293 294 296 292 290 286 293 289 293 292 295 297 294 295 294 288 292 286 287 293 291 288 289 287 287 292 294 294 286 281 285 291 292 289 284 278 281 279 276 279 284 281 284 283 282 291 291 291 292 292 292 294 296 295 291 294 294 293 293
314 313 313 312 314 315 312 311 310 306 300 292 286 289 295 291 299 298 300 299 299 299 293 290 291 296 289 289 288 293 295 291 291 291 287 293 287 297 293 293 298 297 296 297 292 289 293 284 287 291 289 290 289 292 290 293 294 286 284 292 288 279 279 282 281 275 274 274 277 280 283 283 285 286 287 286 288 290 292 292 293 294 291 292 292 293 293 291
314 310 304 312 316 313 310 311 308 302 296 287 286 287 293 295 301 300 303 303 301 296 292 294 291 294 293 290 292 294 295 288 292 290 287 289 287 295 294 296 295 299 298 297 292 289 291 286 286 286 287 289 288 288 282 284 291 289 290 285 289 282 281 280 282 282 281 277 278 279 281 280 289 286 288 290 291 291 291 291 291 292 292 292 291 292 292 292
310 305 303 313 314 312 311 310 303 299 292 285 288 288 297 295 299 302 302 302 299 296 293 293 295 291 294 293 294 290 295 293 292 291 291 291 290 298 295 298 295 297 298 298 294 295 287 289 282 286 284 288 281 283 284 286 285 283 283 280 284 283 285 282 284 284 283 278 278 277 277 283 290 291 290 290 292 292 292 292 292 292 292 292 291 293 292 292
313 305 303 312 312 311 310 305 297 291 288 289 293 292 294 293 299 300 303 303 300 303 297 295 294 292 291 290 290 294 291 292 293 290 292 291 291 286 298 298 299 297 298 297 294 293 287 285 285 283 280 282 286 290 290 291 291 288 286 284 286 283 281 279 279 285 283 282 278 278 277 286 291 294 294 291 293 294 293 292 294 292 292 292 293 291 292 292
306 296 301 310 311 311 304 294 292 294 289 286 289 294 293 300 296 297 298 300 299 298 301 296 296 294 293 292 292 291 290 288 290 289 291 289 293 293 297 300 298 299 294 289 292 296 294 289 287 285 285 287 289 292 293 293 292 291 289 286 289 286 285 281 277 280 281 282 285 285 281 283 294 293 292 293 292 292 292 293 292 292 292 292 294 293 292 292
302 299 308 309 311 308 300 292 294 290 286 290 297 295 297 297 297 299 298 299 296 299 297 295 295 294 294 293 292 291 293 289 291 289 291 291 291 293 296 296 298 296 294 289 294 294 296 287 285 286 289 290 289 290 289 290 291 288 288 289 286 284 286 284 283 283 282 283 282 283 280 283 293 292 292 293 292 292 294 293 292 291 290 291 292 292 292 290
302 302 300 309 311 308 298 287 286 287 288 291 293 293 298 296 297 295 295 297 296 295 295 294 295 298 293 296 293 290 294 286 291 291 290 293 290 298 297 296 296 292 292 288 288 292 286 286 287 283 283 283 286 287 286 285 285 284 283 286 289 288 287 287 286 286 283 285 284 282 277 282 292 293 294 295 295 295 295 291 292 292 291 291 290 291 291 291
304 306 304 304 308 306 295 297 293 289 289 289 289 289 291 293 296 297 297 296 299 297 295 293 297 296 294 296 294 294 295 292 287 292 292 289 291 296 295 296 295 291 295 295 294 295 288 285 284 280 278 276 275 277 278 281 279 283 285 285 287 286 287 285 283 284 281 284 285 282 281 287 292 294 292 292 291 290 292 293 291 292 292 293 290 291 291 291
297 289 300 299 302 301 301 303 299 295 291 289 288 289 292 290 295 297 298 296 299 298 298 296 295 297 295 294 292 292 292 295 291 287 288 288 290 291 295 295 294 293 293 294 293 292 285 285 285 283 281 280 283 284 286 288 285 281 281 283 285 287 287 287 286 284 281 284 283 284 285 285 288 291 292 293 294 294 294 295 295 294 293 289 288 290 291 291
300 293 295 289 298 297 296 299 297 298 293 295 287 291 289 290 292 294 299 292 297 297 296 296 295 293 292 293 290 290 292 290 292 291 290 289 290 291 294 294 293 293 294 292 293 290 286 284 286 286 285 285 287 287 289 289 285 286 285 285 286 286 287 286 284 282 287 285 280 286 288 286 287 290 292 293 294 294 294 294 295 295 295 293 290 289 292 289
289 295 299 300 292 288 290 291 297 295 297 296 292 295 292 291 291 289 295 297 297 299 294 294 296 295 295 293 292 287 289 290 290 288 291 291 290 291 291 292 291 294 293 290 292 289 285 283 286 286 285 287 288 287 289 287 287 286 286 286 285 287 286 285 286 287 287 283 281 286 288 286 288 291 292 293 294 294 294 295 296 296 295 294 293 289 288 289
296 297 299 302 290 295 294 295 297 295 294 295 292 294 291 292 291 293 292 291 295 293 297 289 293 295 295 296 292 289 290 286 286 290 290 290 290 290 289 289 292 293 292 290 289 289 288 283 285 286 284 285 286 286 287 286 286 286 286 286 287 286 286 286 286 287 287 286 287 288 288 287 290 291 293 294 295 296 296 297 296 295 294 294 294 293 288 288
289 292 290 296 295 294 294 293 293 293 290 293 288 290 293 292 291 294 295 294 290 293 298 292 293 295 295 293 294 290 291 292 291 288 290 291 289 288 289 290 288 289 290 289 289 288 288 283 288 285 283 283 285 286 286 286 285 284 285 286 286 287 287 287 286 287 287 286 288 288 286 286 292 294 294 295 296 297 296 295 294 295 294 293 294 293 289 289
296 297 295 289 286 290 292 293 292 290 288 290 289 290 291 291 291 294 294 298 294 292 295 293 295 295 296 294 294 293 296 295 294 294 295 294 289 292 290 287 294 288 287 287 289 286 288 285 288 285 281 280 285 284 284 285 285 284 284 285 285 285 283 285 284 287 285 284 286 286 284 285 291 294 294 294 295 294 294 294 294 294 294 294 293 293 291 292
295 297 296 292 284 290 288 290 290 290 285 290 291 290 290 290 294 294 290 296 297 298 297 296 296 294 292 293 292 294 297 298 297 298 299 299 299 297 297 296 295 292 288 288 289 287 287 286 284 284 280 280 285 285 284 284 283 280 281 284 286 286 287 287 288 289 288 289 285 283 284 290 292 293 292 293 293 293 293 293 293 294 294 295 294 293 291 291
Wind_Speed
14 15 15 15 15 16 16 16 16 17 17 17 16 16 16 16 16 16 15 15 14 14 14 13 11 10 8 8 8 6 8 3 5 6 6 4 7 6 9 8 8 6 4 2 3 3 5 7 8 6 4 4 3 2 2 2 1 1 2 2 5 7 7 2 3 1 1 1 4 3 4 2 2 2 1 1 3 4 4 4 3 4 4 2 3 6 10 12
14 15 15 14 15 15 15 15 15 15 16 16 16 16 16 16 16 15 16 15 14 14 13 14 12 9 9 8 7 4 4 4 8 8 11 3 10 10 8 8 4 7 4 1 5 6 5 7 8 6 5 3 3 2 5 1 2 3 2 3 8 3 3 1 1 4 1 3 1 4 3 2 4 6 2 1 3 6 6 9 6 6 6 7 5 9 12 11
14 15 15 15 15 16 15 15 15 15 15 15 15 16 15 15 14 15 15 16 14 14 13 13 13 11 9 8 7 4 2 3 6 13 3 6 6 5 9 8 7 5 2 2 3 4 5 6 5 3 5 5 5 3 3 2 3 4 3 6 7 4 5 4 3 1 2 2 3 4 4 4 3 1 3 2 4 5 11 8 6 10 10 9 8 10 11 11
15 15 15 15 16 15 15 15 15 15 15 15 15 15 14 13 13 14 15 15 15 14 13 13 13 10 9 7 7 5 2 3 5 2 4 5 4 5 7 6 6 5 2 2 4 5 5 5 4 4 3 5 4 5 3 2 2 3 5 5 5 2 3 4 3 2 4 3 2 4 1 1 2 3 4 3 5 10 10 8 9 12 15 12 13 12 11 12
15 16 16 16 16 16 16 15 15 15 15 15 15 15 14 14 13 12 13 14 15 15 14 13 13 11 10 9 10 2 3 2 1 2 5 5 4 4 5 7 6 4 3 2 4 4 5 5 4 4 3 4 5 4 5 4 6 1 6 6 7 9 5 2 4 4 2 2 1 4 5 3 1 3 6 5 8 10 6 5 6 9 12 13 14 14 12 13
16 16 17 17 17 17 17 16 16 15 15 15 15 15 15 15 14 13 13 13 14 15 14 13 13 12 10 7 6 3 1 3 1 2 3 3 5 4 2 3 3 3 1 3 3 3 3 4 4 3 2 3 5 7 5 9 6 5 6 8 11 10 8 1 1 1 1 1 3 3 4 2 3 3 5 8 14 12 5 1 1 4 6 3 16 13 11 12
16 17 17 18 18 18 18 18 17 17 16 16 15 15 15 15 14 13 13 14 14 14 13 13 13 10 10 9 3 3 3 4 3 2 1 2 3 5 2 3 1 0 2 3 4 3 4 5 5 4 4 6 8 9 8 4 2 4 7 5 10 10 8 5 2 6 2 5 5 2 3 2 3 7 5 11 15 15 9 8 0 2 4 10 10 13 15 16
15 16 17 18 19 19 19 19 18 18 17 17 17 16 16 15 14 14 13 13 14 14 14 13 11 9 7 3 1 3 4 5 2 3 4 3 3 3 2 1 1 1 2 4 4 4 4 6 6 4 6 6 3 4 3 1 6 5 7 6 7 1 3 4 2 4 4 5 4 2 3 7 6 7 4 16 13 9 9 8 6 4 5 8 11 13 13 13
12 16 17 18 19 19 19 19 19 19 18 18 18 17 17 17 15 14 13 13 14 16 13 12 10 6 2 2 3 4 6 1 1 5 5 4 5 4 0 2 2 3 2 4 4 5 3 3 5 1 3 5 5 8 6 1 6 4 7 5 6 6 4 4 5 6 6 3 4 4 9 8 8 7 12 20 16 11 8 6 8 6 6 8 9 12 13 13
11 15 18 19 19 20 19 20 19 20 20 19 19 19 18 18 16 15 13 14 15 14 14 10 7 6 2 1 2 4 1 5 3 3 3 4 4 3 2 2 3 3 4 4 4 4 5 2 2 1 2 5 7 9 3 3 5 1 5 5 7 9 9 7 9 7 6 6 6 8 8 8 6 6 11 10 13 10 12 13 10 9 9 9 8 9 12 13
11 15 17 18 19 20 21 20 21 21 21 20 20 20 19 19 18 16 14 14 15 15 11 9 3 1 1 2 4 7 1 1 1 3 4 2 3 4 2 1 1 2 5 5 4 4 2 3 1 2 1 2 5 5 4 2 3 6 4 6 9 11 12 13 11 11 5 6 9 7 8 5 3 3 17 17 3 4 9 11 11 11 11 10 11 11 10 12
13 15 16 18 19 20 21 21 21 22 21 22 21 21 21 20 18 17 14 13 15 13 9 3 2 2 2 6 7 6 2 3 1 3 2 2 3 2 1 1 1 2 3 4 5 1 1 1 2 1 4 1 5 6 4 4 3 3 4 7 12 10 13 12 13 13 9 6 6 5 4 8 7 11 19 18 11 4 6 7 9 11 12 11 10 11 10 12
9 14 15 15 17 19 20 21 22 22 22 22 21 21 22 21 20 18 14 13 11 10 6 3 3 3 1 4 7 1 4 2 1 4 3 3 3 1 2 0 2 2 2 2 2 3 2 2 0 4 3 3 3 4 1 1 4 4 4 6 13 11 10 16 12 11 10 3 10 7 5 9 13 21 18 17 11 10 8 9 8 8 9 9 9 11 12 11
10 9 16 14 15 17 19 19 21 22 23 23 22 22 22 22 20 18 16 13 14 11 6 6 2 2 3 6 1 3 2 2 3 3 3 3 4 1 2 2 2 1 0 2 1 2 1 1 1 3 1 3 4 3 5 3 2 3 5 4 8 5 8 8 7 8 10 5 12 5 6 10 9 6 16 18 12 10 12 11 10 10 10 10 10 11 12 14
9 8 13 14 15 16 16 17 21 21 22 23 23 22 22 23 21 18 16 12 9 7 6 3 3 2 4 4 4 2 3 2 3 3 2 4 2 2 2 3 1 1 1 3 1 1 0 0 1 1 3 1 1 3 5 5 5 4 2 6 4 7 9 7 3 15 12 2 7 6 6 14 11 14 10 14 9 12 11 10 10 10 10 12 11 13 13 13
7 9 14 13 14 15 15 15 17 19 21 24 22 22 23 21 17 14 11 7 3 4 4 3 3 2 3 8 1 1 1 3 2 4 1 1 0 1 4 3 2 2 2 1 1 1 0 0 3 1 1 0 3 2 6 6 7 6 9 6 8 7 9 8 7 7 10 5 6 13 10 4 5 13 5 6 9 11 12 11 10 12 14 14 14 13 12 12
9 10 12 12 13 14 15 16 17 18 20 20 21 22 21 18 12 9 7 6 2 2 3 2 3 5 3 1 2 3 4 1 2 1 2 0 1 2 4 2 2 3 0 1 1 1 1 2 1 2 2 6 3 4 3 6 9 6 7 10 7 8 7 7 1 3 5 8 8 13 9 13 10 6 4 1 9 11 11 11 11 11 10 11 12 11 10 13
11 10 11 12 13 14 14 16 18 19 20 20 22 21 17 20 6 6 1 2 2 2 5 3 2 2 7 3 7 3 4 5 2 4 2 0 2 2 1 3 2 2 3 2 0 2 3 3 3 5 2 5 6 7 7 10 9 5 4 5 7 6 8 9 6 3 5 6 5 8 13 17 14 11 9 12 9 9 10 12 12 13 12 13 13 12 11 11
12 10 10 11 13 14 14 15 18 18 19 23 23 22 10 2 4 3 2 2 4 1 2 4 5 6 8 5 4 6 1 4 4 4 4 3 1 1 1 1 1 3 2 4 3 7 3 2 2 2 9 9 11 11 13 13 7 10 10 9 7 8 10 13 11 1 13 7 10 10 12 15 16 13 14 15 15 16 14 11 13 15 14 15 15 13 11 10
12 8 9 11 13 14 14 15 15 19 20 15 12 8 0 2 1 2 2 5 7 7 4 3 12 4 0 5 5 2 2 4 3 4 5 3 5 3 2 3 1 1 3 5 3 6 5 7 7 10 15 11 11 12 13 14 12 12 9 8 9 8 12 15 11 6 9 4 11 15 15 14 15 13 12 12 10 12 12 11 14 12 13 13 14 10 11 11
11 8 10 10 12 13 14 14 15 16 18 10 9 5 4 4 5 6 2 7 11 12 13 8 11 13 9 4 5 7 3 3 2 4 5 4 2 8 5 5 3 4 9 7 4 0 0 7 11 16 17 8 10 10 10 11 11 12 9 7 10 6 14 12 13 2 7 7 6 10 8 11 13 12 10 10 10 16 17 16 17 17 15 16 15 12 11 6
10 11 10 10 12 13 14 14 16 16 17 9 4 5 2 4 2 1 2 8 5 11 12 11 5 5 1 4 5 4 3 0 5 5 1 5 6 9 6 9 8 11 5 5 5 1 8 13 15 16 12 9 11 11 8 9 11 10 9 8 9 12 11 9 14 2 1 2 8 7 10 13 15 14 13 13 14 15 16 17 19 15 16 15 13 9 5 6
9 10 11 11 13 12 13 15 15 19 7 5 5 5 2 3 3 4 3 6 10 10 11 7 11 13 12 2 3 2 5 11 13 9 10 5 6 9 6 9 10 9 5 11 12 10 10 11 18 12 11 13 13 9 7 6 7 8 8 6 12 10 6 9 2 2 3 5 3 5 10 12 14 13 17 20 20 20 19 18 17 15 18 17 16 11 8 10
9 8 10 11 12 14 15 14 19 9 3 3 3 3 2 3 4 6 2 6 7 5 11 14 14 11 13 9 5 10 13 8 6 10 9 11 12 4 3 11 11 7 10 12 16 15 18 5 7 14 15 15 15 9 5 4 11 7 9 8 10 10 10 10 8 3 4 5 6 5 10 11 11 14 13 15 18 16 14 12 13 15 14 13 13 6 8 12
9 9 9 10 9 12 15 15 6 4 5 4 2 3 2 1 2 4 1 6 6 5 1 4 3 4 4 6 4 9 9 5 6 2 8 10 9 5 7 4 4 11 10 12 13 16 18 8 0 4 1 5 5 6 6 5 13 9 7 11 13 12 13 12 9 7 5 7 2 1 11 10 5 12 15 8 5 7 8 11 14 14 12 14 12 9 5 7
9 9 8 8 7 11 20 5 4 7 7 2 2 4 2 2 3 3 2 3 12 2 3 6 5 5 3 3 3 3 6 6 2 2 7 2 3 2 3 6 5 11 10 10 12 8 8 6 13 13 8 7 5 7 5 5 12 10 6 4 8 9 6 5 6 3 3 6 2 1 1 23 5 9 8 6 4 8 6 9 12 11 13 14 12 7 9 9
10 9 8 6 4 7 6 3 5 8 4 2 2 2 1 2 2 5 1 3 11 6 7 2 0 1 2 2 2 4 3 3 1 4 3 4 1 1 3 6 3 4 1 1 1 8 4 3 3 2 6 8 8 9 8 9 9 11 1 1 0 0 2 3 2 3 7 1 5 2 4 11 23 5 5 8 8 7 8 9 10 12 14 15 13 8 7 11
11 9 7 3 1 3 2 4 7 6 2 1 1 2 1 1 2 2 0 6 6 5 4 2 1 1 3 2 5 2 2 0 1 2 2 3 0 1 3 8 9 7 4 2 14 0 3 4 6 8 6 6 10 12 1 8 8 3 1 2 1 0 0 0 2 5 4 4 7 6 5 5 16 3 8 11 9 11 12 11 11 14 16 16 14 11 9 13
11 9 6 2 2 3 3 4 3 5 3 1 1 2 1 2 2 2 1 8 3 1 3 4 3 2 2 0 2 3 1 0 0 2 2 1 1 1 6 10 4 5 4 10 15 4 3 4 4 6 5 9 8 1 2 4 8 2 3 1 2 1 1 2 3 4 3 2 13 6 7 8 24 9 7 6 8 10 11 13 15 14 15 13 12 12 7 9
11 9 7 5 3 3 4 4 4 1 3 3 1 1 1 1 1 2 1 11 2 2 1 2 1 5 4 6 3 4 3 0 2 1 2 3 2 1 2 1 1 5 7 6 9 8 2 2 2 2 8 6 4 1 1 1 1 1 0 1 1 2 4 2 2 1 3 10 14 7 11 11 18 4 9 8 8 11 10 8 9 11 10 10 9 11 6 7
13 11 9 10 5 2 2 4 4 3 3 1 0 0 1 0 2 2 14 5 3 2 1 3 2 7 9 9 5 5 4 3 3 4 2 1 2 2 2 2 1 1 3 4 9 9 5 2 1 4 3 4 4 2 1 2 1 3 1 1 2 5 0 1 1 3 3 16 3 10 13 16 15 2 1 7 5 10 12 10 11 11 12 12 9 8 7 8
15 13 12 11 6 2 4 0 4 1 3 2 3 2 1 2 2 10 10 4 4 1 3 3 3 4 7 5 2 7 7 3 5 6 8 6 5 9 11 11 6 3 6 7 10 2 9 13 7 2 5 11 2 3 1 1 2 3 4 2 2 5 1 3 2 1 7 16 4 6 11 7 21 13 6 6 4 9 10 11 12 11 11 11 8 7 7 8
14 13 14 11 7 6 6 4 4 5 4 4 3 1 1 3 9 16 7 2 4 3 2 2 5 8 3 4 5 5 5 4 7 7 6 4 7 9 8 9 6 4 5 2 9 1 7 4 9 7 4 8 8 9 1 2 7 6 8 8 5 4 4 6 5 5 8 7 9 14 7 14 5 7 11 16 17 13 11 11 10 7 6 10 5 6 7 8
14 12 7 8 11 9 5 8 5 5 4 4 2 3 2 3 14 8 4 8 7 0 4 0 3 4 3 8 4 6 2 4 10 7 9 5 9 5 8 13 10 8 3 2 1 5 4 6 7 9 6 7 14 15 17 13 9 16 7 12 13 10 3 4 4 11 12 11 3 3 3 6 1 5 13 19 18 17 13 12 10 8 10 7 5 6 6 6
15 10 8 4 7 6 8 9 8 6 5 5 2 4 8 13 9 7 2 1 1 5 2 1 3 5 7 5 2 5 8 3 10 6 10 8 8 7 9 11 17 10 1 1 4 1 12 13 4 19 3 12 16 18 13 2 1 5 4 3 3 9 5 11 11 11 7 6 11 5 6 3 12 5 5 5 7 9 9 11 9 7 10 4 6 7 7 7
6 5 7 4 5 8 9 8 9 9 9 5 6 6 13 11 5 4 4 5 5 4 1 1 1 5 5 4 4 6 7 4 7 5 4 10 10 10 8 3 11 19 11 11 4 4 2 8 4 11 3 13 17 9 8 8 6 5 9 9 14 3 9 6 5 6 3 4 18 5 9 12 7 16 14 17 16 13 9 9 10 9 13 7 7 7 7 7
5 2 4 5 7 8 10 10 10 9 6 8 6 11 11 5 6 6 5 6 2 6 2 6 4 6 3 6 4 9 6 2 4 6 6 4 9 11 6 9 10 15 19 14 5 7 6 9 1 7 7 4 1 1 3 7 1 6 3 9 0 1 2 4 6 1 4 8 12 8 13 14 7 16 0 9 14 10 9 9 10 13 14 6 8 7 8 10
2 2 3 6 6 12 12 12 13 8 6 8 10 13 2 8 1 3 5 13 13 9 11 8 5 7 8 9 8 6 8 11 8 6 5 10 7 10 13 4 11 15 21 15 10 4 9 12 6 7 2 2 1 1 7 2 2 3 5 1 8 4 4 4 2 6 6 8 7 6 13 14 17 17 6 2 6 9 12 7 8 11 5 6 6 7 5 4
1 0 4 3 11 14 13 12 10 10 6 6 10 14 6 12 7 6 6 9 5 7 10 8 12 7 12 12 10 6 8 10 7 10 6 5 10 7 11 9 6 17 17 19 12 5 1 8 3 3 1 1 1 3 10 5 2 2 0 3 1 0 2 7 8 2 3 11 5 12 11 16 15 3 6 9 12 10 6 7 6 7 8 6 6 5 5 7
1 1 5 2 9 12 14 14 8 7 5 11 11 10 3 5 6 7 11 12 7 5 3 8 6 12 11 15 14 12 3 11 9 8 10 3 9 4 5 12 5 8 17 18 13 10 8 5 12 1 4 2 4 5 9 11 12 4 2 4 1 1 2 3 2 6 9 8 9 7 11 16 15 5 4 4 11 9 8 9 7 5 2 3 4 5 5 7
1 3 2 6 10 11 12 9 8 11 8 3 4 8 8 6 2 3 7 4 3 5 7 5 4 7 5 9 12 12 11 6 5 7 4 4 7 5 2 6 4 5 4 6 9 6 2 3 13 2 1 7 11 6 14 16 15 13 14 15 16 10 4 6 13 2 4 7 8 8 15 14 11 3 6 2 9 11 6 4 1 3 3 3 4 5 6 6
2 6 3 9 13 15 13 8 2 2 1 7 10 3 6 3 8 13 10 9 9 5 1 3 4 8 9 13 11 11 8 9 10 8 2 6 2 4 3 11 8 5 2 4 9 8 10 2 6 10 10 14 12 13 10 13 7 5 9 10 12 10 8 9 14 10 4 5 4 8 10 19 16 2 7 7 3 2 4 4 4 4 3 4 7 7 7 8
5 5 3 13 14 15 9 6 7 7 6 5 4 8 4 6 4 2 5 2 6 5 5 6 9 9 9 10 10 11 11 10 11 14 13 9 8 7 11 20 17 14 8 4 2 4 0 1 3 8 9 4 4 1 4 2 2 3 4 5 5 12 14 12 10 4 7 3 7 10 15 15 17 4 4 8 4 6 8 2 3 4 5 5 5 6 7 7
4 2 2 6 13 10 7 8 6 10 9 7 8 9 7 6 5 7 11 11 6 3 7 4 5 12 10 7 5 11 9 9 7 18 14 11 12 13 9 10 9 4 2 1 5 8 4 2 6 11 8 5 10 9 4 1 2 1 4 5 6 5 4 6 4 1 10 9 12 14 18 8 12 3 9 13 14 15 14 4 2 1 2 3 5 6 7 8
3 3 4 7 11 9 11 8 11 9 12 14 13 17 13 7 9 19 18 16 11 10 5 9 14 5 6 6 10 13 13 15 6 6 9 5 9 4 11 14 6 6 1 5 7 2 2 5 5 8 11 12 12 12 13 9 3 3 1 5 6 4 8 6 11 8 14 7 15 15 14 12 16 13 12 10 8 7 8 8 6 3 6 8 6 7 9 9
4 6 4 5 10 10 10 6 11 10 10 11 12 14 14 16 7 15 18 19 15 11 13 6 1 7 12 10 12 12 13 11 12 2 5 7 10 7 10 12 8 5 7 12 8 6 1 1 5 7 8 10 8 8 6 9 9 5 4 6 8 10 8 7 6 10 13 12 15 13 14 17 17 20 24 24 20 18 16 16 15 12 9 6 6 8 8 9
4 5 4 4 4 11 11 11 12 10 13 10 10 5 17 19 14 10 12 11 10 18 12 12 7 8 5 11 14 14 16 14 14 16 16 16 10 11 8 8 9 11 14 7 2 0 1 5 13 17 18 17 15 19 17 15 17 17 16 16 11 7 7 9 10 14 11 14 20 10 16 18 18 18 22 23 21 17 13 12 14 15 12 9 7 7 9 7
8 4 6 3 6 5 10 11 14 14 13 11 13 7 13 12 11 14 8 19 12 11 8 5 18 19 18 18 11 12 9 16 13 16 12 15 11 11 12 10 12 13 15 6 5 5 4 11 14 15 21 22 20 21 20 19 19 19 17 15 17 16 12 14 16 19 20 17 20 13 18 22 22 20 19 23 22 17 16 20 23 22 18 13 13 7 6 7
6 5 5 3 3 2 8 6 9 15 16 17 9 12 15 17 19 14 9 3 8 8 16 13 13 19 23 22 18 15 12 11 12 12 12 12 17 12 10 5 12 13 12 9 4 4 5 10 10 15 15 15 16 20 21 25 23 23 21 21 22 22 22 18 21 22 20 20 20 22 24 27 22 20 23 25 21 20 22 22 23 22 19 19 21 14 6 8
5 5 4 6 5 6 7 5 2 3 8 9 11 10 12 16 19 16 11 11 11 11 11 22 20 19 18 20 21 19 19 21 21 18 12 16 12 6 11 13 8 4 9 11 5 5 10 8 15 15 13 18 21 22 22 24 23 25 26 23 21 22 25 29 25 19 20 22 22 25 25 24 19 26 25 21 22 22 23 27 29 25 20 20 20 16 7 8
3 4 3 5 7 5 6 7 8 9 9 6 10 8 11 15 17 15 18 12 16 15 9 18 18 22 18 19 21 23 22 23 23 26 24 18 16 10 11 2 14 9 6 7 5 4 15 11 9 10 12 17 17 24 26 26 25 26 25 24 23 27 30 26 18 19 21 24 25 25 18 18 22 21 14 17 19 21 24 26 25 20 19 18 18 15 8 10
4 3 4 3 6 3 9 6 10 8 11 7 10 10 8 10 13 11 16 12 17 17 17 17 14 15 15 18 21 22 23 23 23 23 21 20 20 18 17 12 12 13 7 10 9 10 10 8 9 10 17 17 15 20 23 22 19 20 22 23 34 35 27 19 21 24 23 22 21 18 22 21 24 15 16 18 21 23 25 24 21 21 19 19 18 13 8 10
Wind_Direction
15 14 12 10 5 2 359 357 355 353 349 348 349 346 346 347 347 347 348 346 345 346 342 342 338 327 322 323 319 344 329 305 283 253 238 247 123 133 109 117 122 143 156 191 200 206 212 205 215 225 212 138 215 240 149 180 233 160 224 203 258 246 254 348 331 10 41 1 132 215 196 191 257 150 168 95 258 247 259 220 223 222 205 116 143 128 125 131
13 11 8 5 2 0 356 354 353 350 346 345 344 343 343 343 342 342 343 343 341 343 342 340 338 334 322 318 323 325 346 263 262 262 257 96 129 134 119 111 142 136 176 197 218 204 236 211 212 186 199 218 165 212 129 215 137 208 239 239 251 256 264 159 356 345 27 300 354 152 191 205 243 159 151 181 224 206 237 243 220 220 211 101 151 131 132 144
10 7 6 3 360 357 354 352 349 347 345 343 342 338 340 336 338 340 339 339 337 338 340 338 337 326 327 318 307 300 276 275 265 256 191 358 95 113 121 117 126 169 207 310 314 306 277 298 323 191 201 254 170 211 182 199 167 221 244 263 260 278 318 316 334 306 336 20 289 297 191 181 250 169 96 215 259 229 217 231 219 223 219 173 165 152 154 156
6 3 1 359 357 354 350 349 346 345 345 341 338 337 334 331 332 337 337 335 334 333 335 335 331 331 318 315 321 298 250 269 253 69 53 50 42 76 107 128 142 182 248 248 260 285 293 298 276 276 264 229 242 186 165 187 139 212 183 224 254 269 358 313 40 7 32 47 317 285 65 179 247 230 144 214 252 243 250 229 212 215 218 196 170 167 166 168
3 360 356 355 353 350 347 346 345 342 342 340 338 335 330 329 328 330 333 331 329 328 330 331 332 323 317 315 311 272 258 281 257 89 54 63 63 59 99 110 171 199 216 286 301 259 257 269 251 242 234 270 251 221 232 194 192 336 234 254 264 283 283 13 71 47 59 53 327 279 281 226 191 225 190 202 225 244 212 242 236 233 204 195 168 177 173 178
359 357 353 350 349 347 344 342 342 340 338 337 336 334 329 328 328 323 327 330 323 322 323 326 326 323 310 318 305 255 346 279 122 101 327 40 88 82 60 133 168 252 203 258 256 258 253 244 244 233 226 232 252 245 223 211 149 248 247 244 250 253 259 201 167 91 118 223 209 242 254 272 176 246 226 220 227 242 234 213 233 58 45 156 165 163 178 184
355 354 351 348 345 343 341 340 338 338 336 333 333 331 329 327 322 323 319 321 320 314 319 322 324 322 315 305 246 213 228 267 73 205 229 25 90 100 107 104 223 177 211 237 236 257 231 253 246 247 249 252 252 254 262 109 163 217 259 268 286 299 269 271 297 152 186 234 244 242 48 266 237 249 225 238 237 241 245 269 12 124 118 117 145 170 184 189
354 352 349 346 342 340 338 337 336 335 334 332 330 329 326 322 321 317 317 316 317 314 314 317 322 319 337 297 252 222 223 251 105 166 156 154 140 135 168 193 174 218 216 231 246 240 279 270 274 282 261 248 293 328 59 315 183 227 259 246 254 128 281 280 240 176 203 229 240 273 260 244 226 246 284 259 251 245 232 233 237 160 141 152 163 183 193 196
352 349 345 344 340 336 335 334 333 332 332 330 328 326 323 321 318 316 313 313 312 311 311 315 309 331 312 271 269 294 256 86 159 117 167 155 118 111 165 167 201 168 227 225 239 265 287 268 266 311 318 323 333 314 309 269 268 240 253 281 309 300 292 255 239 208 204 227 209 232 241 251 248 279 260 257 256 248 256 248 231 180 191 185 185 188 192 200
347 345 342 340 338 334 331 331 330 330 329 328 327 324 321 316 314 312 311 312 307 309 307 309 325 313 310 241 263 255 223 210 123 126 100 123 139 138 239 318 172 220 232 234 230 231 228 288 317 41 38 302 272 270 268 176 255 77 294 306 299 286 295 281 267 246 209 217 186 216 241 245 242 159 268 239 249 236 238 235 229 224 208 207 208 198 199 200
343 339 338 337 335 332 329 328 329 328 327 326 324 321 317 313 309 308 308 308 303 301 307 301 275 1 217 208 257 254 132 240 205 106 138 134 149 191 167 174 257 255 234 247 225 258 323 336 357 15 21 238 343 294 209 263 3 305 308 307 280 273 260 257 252 246 216 240 195 197 239 253 251 167 243 259 225 207 210 223 224 220 226 216 212 213 206 207
337 334 335 336 333 331 328 327 327 326 325 323 321 318 314 310 307 304 303 304 300 297 292 304 212 264 305 259 241 243 230 82 258 143 138 209 142 122 200 283 311 289 292 262 242 87 79 342 349 221 241 48 262 321 281 18 334 330 348 305 282 276 269 253 235 229 191 237 173 176 287 269 223 227 239 246 237 212 209 218 221 217 220 221 213 214 214 214
328 328 334 333 330 329 327 325 325 324 322 320 316 314 310 306 303 302 302 299 295 292 270 249 231 244 282 261 242 81 269 130 111 141 111 92 97 135 125 187 255 270 294 308 348 8 6 13 312 240 263 291 294 249 275 276 284 263 245 254 289 283 264 256 238 225 174 212 142 135 268 238 232 225 242 242 239 219 220 228 223 223 222 222 216 217 218 216
314 320 330 328 329 327 323 320 321 321 319 315 313 309 305 300 298 299 298 288 289 286 245 198 222 214 201 253 112 265 42 339 163 181 149 146 156 150 185 198 195 265 185 244 75 324 340 1 338 255 349 236 253 45 320 281 235 239 267 249 251 302 261 261 231 178 169 147 156 174 237 264 263 253 222 239 223 192 213 220 222 222 221 224 222 221 220 216
316 323 323 326 323 320 316 313 316 317 315 314 312 307 300 297 295 296 292 291 268 273 215 202 218 182 205 253 72 85 271 323 202 155 122 178 198 128 186 173 79 45 84 57 88 282 267 272 23 232 256 40 342 301 270 256 253 223 338 249 237 212 263 281 122 150 179 180 185 138 257 254 257 268 252 222 209 190 208 218 220 219 222 225 227 226 224 222
319 317 321 314 315 315 314 313 313 312 314 312 308 301 298 293 294 289 282 281 305 211 207 177 193 206 333 271 210 25 192 193 180 108 144 58 249 317 113 109 150 166 199 101 199 213 289 73 220 231 339 195 211 215 278 293 266 223 200 249 251 238 267 289 200 200 177 112 194 180 221 266 238 236 262 182 177 193 206 218 218 217 223 228 233 230 221 224
314 309 308 311 316 318 321 317 315 314 310 310 306 298 296 289 289 276 278 215 201 217 228 267 161 161 260 133 84 193 195 149 80 146 101 76 78 157 140 138 189 156 87 157 227 136 170 193 120 31 212 235 204 211 254 255 266 257 207 232 233 245 271 260 5 240 193 137 190 218 239 241 247 270 265 195 185 197 214 222 232 236 239 239 242 235 220 217
301 302 303 312 320 321 320 318 316 318 315 313 309 298 292 295 278 124 144 218 252 180 246 251 264 162 258 96 232 236 89 122 179 112 78 92 206 230 205 204 123 187 141 204 178 190 159 210 151 219 264 204 211 216 185 237 226 237 274 281 272 250 235 261 270 215 206 206 216 213 230 254 257 253 258 258 244 220 219 227 239 246 244 246 247 245 235 218
293 293 303 318 322 320 316 315 320 321 317 317 303 293 288 102 119 243 211 191 150 127 263 179 194 194 256 206 130 111 39 124 106 134 166 171 229 298 131 278 158 169 206 177 217 180 154 228 202 252 239 219 208 201 208 227 238 259 266 268 270 277 280 267 268 168 181 194 225 222 223 240 248 247 248 253 254 254 245 235 239 244 246 247 248 245 239 227
287 295 305 323 316 315 316 315 317 322 323 327 330 327 216 268 137 142 217 222 236 224 286 187 201 257 79 135 136 76 145 231 127 238 129 169 139 143 204 213 146 300 231 203 144 198 141 185 192 215 234 223 219 216 225 233 239 253 265 271 267 271 272 271 274 234 194 190 215 226 234 248 262 260 254 248 252 256 256 246 245 244 247 250 252 243 230 224
293 297 303 309 311 313 314 317 318 320 322 314 313 321 346 359 315 295 357 247 237 262 276 269 200 221 248 92 120 161 149 211 264 151 176 162 175 143 195 178 173 208 222 218 186 32 356 211 217 229 238 232 235 234 234 237 237 245 255 263 274 257 267 270 283 230 204 187 242 236 250 253 259 263 257 255 249 252 253 255 252 253 253 254 255 251 230 218
293 294 298 303 308 310 314 318 322 316 319 291 280 326 41 62 336 313 239 286 259 234 243 248 280 272 161 151 162 187 73 335 209 174 216 167 191 175 184 183 177 217 182 183 254 203 211 221 229 237 249 256 257 259 257 263 273 275 268 277 283 268 271 283 274 124 341 173 270 277 269 263 262 259 259 253 248 249 246 243 250 251 256 256 255 244 202 130
288 291 300 304 305 312 316 321 319 317 304 357 343 3 37 354 333 297 270 274 269 255 257 248 239 238 242 151 181 130 190 216 232 167 184 182 170 223 163 186 208 220 188 176 203 219 247 231 236 246 253 252 258 248 252 266 262 258 265 266 250 258 276 287 245 138 190 179 233 240 263 268 272 267 264 259 254 248 246 246 249 249 251 251 251 237 188 170
279 292 296 300 310 313 318 323 316 303 7 346 359 35 6 5 345 327 237 252 280 221 209 223 226 227 223 207 187 180 204 227 217 209 180 166 179 160 210 199 212 216 214 207 211 222 230 211 199 223 236 237 243 237 226 231 255 229 224 234 253 257 245 243 267 245 203 232 253 326 279 266 247 259 256 251 246 252 250 252 253 253 253 251 252 240 186 175
276 283 292 299 318 320 310 324 310 1 309 277 120 11 41 346 323 349 272 278 229 253 5 328 169 257 218 33 136 180 227 257 205 32 175 176 156 120 230 189 212 227 218 222 232 240 251 234 112 225 185 225 227 245 214 202 262 260 215 213 238 250 263 268 286 335 338 303 118 26 317 262 206 228 242 257 242 232 236 232 242 246 255 259 252 224 194 171
264 268 278 295 318 331 309 301 41 335 306 17 23 336 2 13 264 292 336 282 278 172 40 243 124 274 77 175 104 199 51 245 58 315 145 270 345 189 115 211 189 231 217 228 235 240 248 195 212 224 214 229 225 240 226 176 256 270 258 225 261 265 276 285 298 14 280 246 230 89 15 296 203 247 254 280 222 229 232 221 234 241 248 250 251 214 193 175
248 247 260 278 347 340 324 25 335 312 302 99 24 354 324 347 305 302 312 263 272 150 175 326 199 315 17 4 133 84 191 243 271 18 14 360 220 248 205 207 180 245 171 249 295 247 183 152 137 172 218 231 238 251 233 212 248 261 169 287 239 2 271 256 277 212 256 289 280 158 155 267 291 232 221 226 230 227 232 234 230 234 243 250 254 234 184 181
243 246 249 264 276 39 315 304 321 332 10 337 311 352 350 302 300 264 107 298 280 95 129 215 129 306 50 297 357 236 304 56 112 189 36 276 284 153 223 215 203 197 185 165 239 232 186 168 180 209 206 215 224 229 229 185 203 225 253 187 135 191 186 320 248 252 244 330 273 164 165 276 263 286 200 200 233 236 234 230 233 230 235 246 255 245 177 186
242 241 237 218 154 185 246 258 284 302 80 39 8 323 1 312 302 297 18 265 178 112 336 126 292 18 117 58 140 115 229 102 50 355 293 62 291 15 209 240 273 295 252 198 234 239 324 176 219 203 165 220 221 126 172 195 223 236 207 101 112 185 157 219 226 260 290 258 257 163 175 227 277 263 263 202 210 222 231 233 236 235 235 231 233 251 210 184
244 235 221 165 148 232 226 213 215 74 94 63 316 306 314 295 249 197 102 251 50 340 93 49 259 171 147 142 203 198 236 23 51 151 203 206 150 38 276 39 278 265 270 277 263 255 206 227 149 167 207 213 114 136 130 260 158 160 91 313 294 271 243 265 201 186 315 244 254 190 199 181 273 299 177 155 204 208 221 241 241 241 243 242 224 224 198 169
233 224 210 160 215 263 335 263 95 80 100 87 312 251 314 226 217 178 239 241 1 158 120 161 129 137 166 171 189 173 200 162 165 150 139 273 155 214 318 322 246 344 307 303 281 265 244 105 143 235 119 87 127 115 114 212 208 128 144 178 329 304 87 346 302 151 215 270 238 196 196 195 239 289 284 202 194 190 201 213 226 236 236 241 231 220 180 164
234 224 200 178 189 211 244 312 156 144 91 59 303 3 322 244 235 226 228 66 259 167 179 200 189 188 204 233 250 161 178 191 170 182 176 187 173 172 208 194 153 153 263 205 249 215 248 233 213 17 275 156 160 188 250 13 130 162 132 140 175 258 65 273 97 272 213 248 249 195 201 230 231 233 216 254 202 220 210 198 219 222 232 240 231 210 166 157
239 229 206 198 173 197 216 118 146 119 95 16 13 288 285 212 243 232 247 65 268 120 261 123 176 185 200 171 245 168 183 199 165 198 172 184 183 226 218 222 202 173 237 191 218 247 263 232 194 206 18 223 149 194 149 317 224 155 165 169 146 240 230 256 237 223 266 250 254 248 184 234 257 245 207 245 242 220 209 208 214 206 229 244 201 160 149 159
237 229 209 195 198 198 144 132 137 112 69 55 73 45 47 246 245 82 200 184 230 11 36 321 141 215 197 206 206 141 203 234 149 202 179 195 194 227 206 223 230 264 231 271 208 199 269 309 228 144 240 168 188 208 201 201 160 196 184 158 190 186 192 252 218 243 243 262 293 196 101 222 170 235 198 211 221 227 218 207 209 202 227 231 161 161 154 158
239 231 225 198 210 189 145 138 131 118 103 103 81 159 180 230 248 268 278 298 258 270 225 130 174 183 242 248 260 193 186 230 183 161 193 188 207 205 201 197 210 211 199 262 232 159 219 243 235 180 197 160 187 217 213 106 64 215 193 186 193 227 161 231 235 248 266 315 295 210 213 230 255 281 258 239 247 237 213 211 201 207 240 141 143 162 180 183
248 215 203 195 183 183 151 137 125 114 127 125 128 187 221 210 231 143 234 226 260 254 181 270 275 222 230 237 225 229 227 235 190 183 225 215 224 219 212 186 193 191 187 203 176 246 244 256 169 178 25 177 203 194 203 166 213 222 147 204 214 177 188 251 286 270 330 329 259 274 274 260 311 271 243 244 236 222 216 212 203 201 233 177 183 192 187 189
218 120 186 199 201 157 141 132 131 128 127 151 158 214 231 287 261 285 345 325 355 337 322 258 206 216 211 237 205 198 216 204 220 175 226 174 248 234 218 225 184 193 204 190 246 229 213 247 135 157 212 263 157 246 258 220 148 95 195 229 68 31 109 170 233 256 230 231 270 280 269 289 305 287 229 223 227 216 216 211 191 204 223 183 216 206 193 193
175 193 265 235 172 141 145 149 129 131 133 157 200 228 168 249 163 245 297 296 299 295 286 271 269 210 246 251 244 194 184 190 188 178 234 175 260 173 205 238 188 195 206 217 222 241 214 264 234 225 93 6 31 358 285 256 200 135 203 286 140 235 247 240 108 242 252 246 263 272 288 267 253 259 292 354 207 209 210 192 202 223 230 218 228 228 213 158
154 147 261 253 143 144 144 140 134 136 138 181 207 232 240 249 267 271 298 300 307 306 265 249 263 237 266 257 280 259 173 214 178 201 205 203 244 167 192 186 223 200 201 204 219 254 203 240 263 11 70 184 12 156 216 189 279 165 2 325 293 103 210 148 204 205 176 253 268 272 276 275 256 223 245 227 215 206 189 202 215 234 230 223 225 224 175 163
165 243 230 69 141 134 141 137 143 152 151 204 206 230 216 248 247 255 240 251 272 267 261 285 294 301 292 294 298 296 249 220 207 220 210 162 227 201 199 185 193 200 207 200 213 203 252 168 252 64 308 108 237 193 212 170 192 211 231 278 325 175 238 107 301 199 207 230 222 253 268 266 279 193 220 233 195 171 177 201 216 228 248 238 226 222 213 188
219 233 257 135 133 134 133 135 144 176 193 289 256 241 242 254 280 259 306 331 302 239 262 269 303 272 308 314 294 292 287 270 251 250 231 254 221 285 172 181 207 229 223 235 225 209 265 177 238 129 301 233 239 193 204 205 201 195 189 208 204 188 199 228 248 243 226 218 228 213 243 257 260 56 30 47 154 166 184 136 173 230 234 234 225 225 214 212
197 253 191 152 141 143 139 161 216 149 208 218 219 195 244 269 272 274 272 275 275 279 11 304 245 260 260 264 266 282 293 300 296 299 253 278 273 259 336 351 341 6 148 193 210 210 211 172 226 231 212 234 230 235 226 230 237 239 197 222 209 210 202 209 236 226 250 242 264 239 259 247 252 30 342 13 34 91 132 126 160 179 197 218 223 210 218 210
197 243 48 146 162 155 138 197 185 177 209 238 322 294 268 266 280 256 276 185 256 222 255 237 243 258 241 243 264 276 280 276 284 276 289 297 298 300 325 320 326 324 345 293 320 309 213 148 263 263 288 322 323 46 30 14 215 309 290 242 200 217 212 222 234 238 241 191 218 240 239 256 274 274 262 270 268 284 293 262 183 191 207 212 219 230 222 234
250 205 131 190 177 184 153 188 200 218 229 259 246 253 234 240 226 252 250 242 225 187 224 232 273 224 248 234 238 252 250 267 242 254 266 282 275 298 314 346 2 339 12 325 43 312 339 299 230 266 262 282 289 299 261 6 26 261 228 240 239 262 265 258 281 299 266 224 249 247 252 269 269 278 209 236 237 244 258 267 159 350 280 236 238 237 230 226
270 263 184 180 194 205 208 193 220 205 212 223 218 237 240 243 219 231 237 241 219 222 237 233 228 211 232 214 238 235 241 244 276 272 279 273 274 295 297 281 314 300 282 106 106 359 298 318 320 263 250 252 252 240 253 279 252 245 277 278 283 260 254 276 258 250 256 243 249 254 271 269 279 292 293 289 291 290 281 282 285 275 298 298 253 237 237 231
208 241 174 196 189 210 239 215 236 214 218 219 237 236 233 247 236 232 232 252 241 240 223 243 135 204 228 235 248 244 243 235 242 220 217 229 251 264 236 263 276 261 287 327 346 53 169 88 277 276 275 273 268 282 299 305 294 264 255 239 244 253 252 244 263 257 256 265 253 252 264 277 278 286 283 281 281 282 287 292 298 303 299 282 246 232 230 226
310 257 178 216 194 223 219 204 224 208 226 184 239 130 227 234 242 258 198 259 205 235 239 229 227 223 204 217 231 241 235 245 233 241 242 251 227 244 243 249 267 277 286 303 307 330 156 260 249 263 264 263 265 271 281 283 275 276 279 278 273 260 254 251 242 254 256 267 260 257 268 270 265 264 268 278 281 280 282 289 295 294 287 285 266 234 235 247
239 224 239 244 212 197 217 237 221 224 230 215 235 215 239 242 219 238 201 229 234 215 235 186 228 225 231 231 220 235 211 236 227 239 236 239 258 247 260 236 243 241 249 239 151 211 201 234 241 243 247 248 254 264 268 271 268 266 264 268 277 280 264 252 249 249 247 246 260 257 252 257 257 255 266 267 272 280 289 291 286 285 290 290 277 232 241 236
266 344 290 35 295 302 224 249 230 236 236 226 244 227 243 242 247 227 223 243 214 223 214 246 220 221 227 230 227 241 228 255 239 230 229 241 231 245 256 268 240 228 232 239 208 187 228 222 229 225 240 241 243 242 245 255 262 264 259 258 261 264 268 262 256 251 249 254 256 255 252 253 259 263 257 261 272 283 286 285 282 282 281 278 274 270 235 241
242 244 284 326 312 291 305 308 263 247 259 233 241 220 241 243 251 256 247 239 247 232 205 235 236 232 224 225 227 233 227 226 237 249 232 228 245 211 244 225 259 228 204 223 220 191 202 213 198 226 235 239 235 240 239 242 243 255 259 260 257 258 256 250 250 259 270 264 259 256 255 260 259 255 259 268 269 268 271 271 271 271 271 271 274 275 248 242
328 337 340 306 301 289 274 258 261 260 260 228 252 241 248 248 253 247 254 240 248 255 233 242 239 246 240 238 234 236 232 235 237 238 243 238 245 196 218 200 202 230 184 221 191 210 189 241 193 221 236 240 229 237 238 239 238 242 251 260 259 250 248 249 251 246 244 251 253 258 261 258 255 258 268 263 263 260 258 260 263 267 266 270 269 269 249 248
302 315 338 328 280 275 284 294 287 289 253 242 247 250 250 256 259 265 274 252 254 252 254 260 267 269 260 258 255 246 245 244 244 246 253 254 249 247 234 234 191 211 209 216 190 195 188 207 214 218 235 238 226 230 234 237 239 241 233 238 246 248 246 252 246 249 246 243 250 251 248 247 255 262 266 261 257 255 256 254 259 261 267 264 263 265 238 232